EW0629 Weather Reports


Display with metric or nautical units.
time (UTC)temp
F
wind
direction
speed
MPH
gust
MPH
rain 1hr
in
rain 24hr
in
rain mn
in
humidity
%
barometer
mb
20260505021544 63 197 0.0 0.0 0.00 0.00 0.00 63 1013.1
20260505020041 64 197 0.0 0.0 0.00 0.00 0.00 63 1013.1
20260505014521 64 197 0.0 0.0 0.00 0.00 0.00 64 1012.9
20260505013019 65 197 0.0 0.0 0.00 0.00 0.00 62 1012.8
20260505011559 66 197 0.0 0.0 0.00 0.00 0.00 62 1012.9
20260505004535 69 197 0.0 0.0 0.00 0.00 0.00 55 1012.8
20260505003029 71 197 0.0 0.0 0.00 0.00 0.00 53 1012.7
20260505001508 73 197 0.0 0.0 0.00 0.00 0.00 47 1012.7
20260505000004 76 197 0.0 0.0 0.00 0.00 0.00 40 1012.5
20260504234544 77 197 0.0 0.0 0.00 0.00 0.00 40 1012.7
20260504233042 78 198 0.0 0.0 0.00 0.00 0.00 38 1012.7
20260504231527 79 175 0.0 0.0 0.00 0.00 0.00 35 1012.7
20260504230028 80 217 0.0 0.0 0.00 0.00 0.00 35 1012.7
20260504224526 80 210 0.0 0.0 0.00 0.00 0.00 35 1012.9
20260504223024 81 187 0.0 0.0 0.00 0.00 0.00 34 1012.9
20260504221524 80 220 0.0 0.0 0.00 0.00 0.00 34 1012.9
20260504220025 81 255 0.0 0.0 0.00 0.00 0.00 36 1012.9
20260504214522 81 244 0.0 0.0 0.00 0.00 0.00 34 1013.0
20260504213023 81 220 0.0 0.0 0.00 0.00 0.00 36 1012.9
20260504211503 80 223 0.0 0.0 0.00 0.00 0.00 35 1012.9
20260504210001 80 216 0.0 0.0 0.00 0.00 0.00 39 1013.1
20260504204543 80 167 0.0 0.0 0.00 0.00 0.00 38 1013.1
20260504203040 79 101 0.0 0.0 0.00 0.00 0.00 40 1013.2
20260504201519 80 226 0.0 0.0 0.00 0.00 0.00 38 1013.7
20260504200033 79 196 0.0 0.0 0.00 0.00 0.00 40 1014.0
20260504194557 79 208 0.0 0.0 0.00 0.00 0.00 39 1014.4
20260504193056 79 238 0.0 0.0 0.00 0.00 0.00 40 1014.3
20260504191550 78 185 0.0 0.0 0.00 0.00 0.00 39 1014.6
20260504190033 78 263 0.0 0.0 0.00 0.00 0.00 37 1014.9
20260504184515 78 309 0.0 0.0 0.00 0.00 0.00 37 1015.0
20260504183032 77 173 0.0 0.0 0.00 0.00 0.00 41 1015.1
20260504181554 77 96 0.0 0.0 0.00 0.00 0.00 39 1015.3
20260504180052 77 217 0.0 0.0 0.00 0.00 0.00 42 1015.4
20260504174533 76 230 0.0 0.0 0.00 0.00 0.00 43 1015.5
20260504173031 76 206 0.0 0.0 0.00 0.00 0.00 45 1015.9
20260504081531 46 252 0.0 0.0 0.00 0.00 0.00 100 1016.9
20260504044540 52 252 0.0 0.0 0.00 0.00 0.00 100 1018.1
20260504043028 52 252 0.0 0.0 0.00 0.00 0.00 3 1018.3
20260504041505 53 285 0.0 0.0 0.00 0.00 0.00 14 1018.2
20260504040002 53 285 0.0 0.0 0.00 0.00 0.00 21 1018.2
20260504034556 53 285 0.0 0.0 0.00 0.00 0.00 26 1018.1
20260504033059 54 285 0.0 0.0 0.00 0.00 0.00 34 1018.2
20260504031519 54 285 0.0 0.0 0.00 0.00 0.00 38 1018.1
20260504030035 55 285 0.0 0.0 0.00 0.00 0.00 44 1017.9
20260504024615 56 285 0.0 0.0 0.00 0.00 0.00 49 1017.8
20260504023103 56 285 0.0 0.0 0.00 0.00 0.00 54 1017.9